www.pogodaiklimat.ru

Погода и климат >> Архив погоды >> Россия >> город Санкт-Петербург >> Санкт-Петербург


АРХИВ ПОГОДЫ в Санкт-Петербурге

Время (UTC), дата Ветер
(напр.,м/с)
 
Видим.   Явления Облачность Т
(С)
Тd
(С)
f
(%)
Тe
(С)
Тes
(С)
Комфортность P
(гПа)
Po
(гПа)
Тmin
(С)
Tmax
(С)
R
(мм)
R24
(мм)
S
(см)
09 16.07 В 1 10 км 4/3 1000 м
[Cu hum Ci fib]
+21.3 +7.5 41 +22 +33 комфорт 1010.2 1009.5
12 16.07 В 1 10 км 8/8 1000 м
[Cu med, cong Ci fib]
+21.4 +5.3 35 +22 +25 комфорт 1009.6 1008.9
15 16.07 СВ 2 10 км 8/5 1000 м
[Cu med, cong Ci fib]
+21.6 +7.5 40 +23 +24 комфорт 1009.4 1008.7
18 16.07 В 1 10 км 8/0
[Ac trans]
+19.0 +8.2 49 +21 +21 комфорт 1009.8 1009.1 +23.1
21 16.07 штиль 0 10 км {ливн. осадки} 8/3 1000 м
[Cu med, cong Ac trans]
+15.4 +11.5 78 +15 +15 прохладно 1010.0 1009.3
00 17.07 штиль 0 10 км {ливн. осадки} 4/0
[Ac trans Ci fib]
+14.2 +10.9 81 +14 +14 прохладно 1009.4 1008.7
03 17.07 штиль 0 10 км 8/0
[Ac As]
+14.8 +11.4 80 +15 +15 прохладно 1009.3 1008.6 +13.1 0.4
06 17.07 В 1 10 км 10/0
[Ac As]
+17.0 +11.0 68 +18 +20 по сезону 1009.3 1008.6 +13.1 0.4
09 17.07 СВ 1 10 км {морось} 10/10 2000 м
[Sc diur, vesp]
+16.7 +11.4 71 +18 +18 прохладно 1009.1 1008.4
12 17.07 СВ 1 10 км в посл. час дождь 10/10 1000 м
[Sc diur, vesp]
+17.4 +11.7 69 +18 +18 холодно 1009.1 1008.4
15 17.07 СВ 1 10 км {ливн. осадки, дождь} 9/8 1500 м
[Sc diur, vesp Ac trans Cs]
+17.0 +13.6 80 +18 +19 прохладно 1008.8 1008.1 4
18 17.07 СВ 1 10 км {ливн. осадки, дождь} 9/5 1500 м
[Sc diur, vesp Ac As]
+16.9 +14.0 83 +18 +18 прохладно 1008.9 1008.2 +18.0 4
21 17.07 СВ 1 10 км 8/0
[Ac As Cs]
+15.4 +13.6 89 +16 +16 прохладно 1008.3 1007.6
00 18.07 СВ 1 10 км 10/10 300 м
[St]
+16.6 +14.4 87 +17 +17 по сезону 1008.1 1007.4
03 18.07 СВ 1 10 км 10/10 200 м
[St]
+16.3 +14.3 88 +17 +17 по сезону 1007.5 1006.8 +15.3 4
06 18.07 СВ 2 4000 м слаб. морось 10/10 200 м
[St]
+16.9 +14.4 85 +17 +17 по сезону 1007.2 1006.5 +15.3 0.0
09 18.07 СВ 2 10 км {морось} 10/0
[Ac und]
+18.8 +13.2 70 +20 +24 по сезону 1006.8 1006.1
12 18.07 СВ 2 4000 м слаб. дождь {морось} 10/10 300 м
[Frnb Ns]
+16.3 +13.9 86 +16 +16 холодно 1006.4 1005.7
15 18.07 С 2 4000 м слаб. дождь 10/10 300 м
[Frnb Ns]
+15.8 +14.0 89 +16 +16 холодно 1005.5 1004.8 5
18 18.07 С 3 4000 м слаб. дождь 10/10 200 м
[St As op]
+15.8 +14.1 90 +15 +15 холодно 1004.8 1004.1 +19.2 10
21 18.07 С 1 4000 м слаб. дождь 10/10 200 м
[Frnb Ns]
+15.7 +14.3 91 +16 +16 прохладно 1004.9 1004.2
00 19.07 С 2 4000 м {дождь} 10/10 100 м
[Frnb Ns]
+15.8 +14.5 92 +16 +16 по сезону 1005.1 1004.4
03 19.07 С 1 4000 м в посл. час дождь 10/10 100 м
[Frnb Ns]
+15.7 +14.6 93 +16 +16 по сезону 1005.1 1004.4 +15.5 4
06 19.07 С 1 2000 м ливневой дождь 10/10 300 м
[Cb calv]
+15.4 +14.3 93 +16 +16 прохладно 1005.1 1004.4 +15.3 6
09 19.07 С 1 50 км слаб. дождь 10/10 200 м
[Sc]
+16.2 +14.7 91 +17 +17 прохладно 1005.3 1004.6
12 19.07 С 1 10 км {ливн. осадки, дождь} 10/10 300 м
[Sc]
+17.3 +14.8 85 +18 +18 прохладно 1005.7 1005.0
15 19.07 С 1 4000 м слаб. дождь 10/10 200 м
[Sc]
+16.6 +15.0 90 +17 +17 прохладно 1006.6 1005.9 7
18 19.07 С 1 4000 м {дождь} 10/10 300 м
[Sc]
+16.9 +14.4 85 +18 +18 прохладно 1007.1 1006.4 +17.6 4
21 19.07 СЗ 1 4000 м слаб. дождь 10/10 300 м
[Sc]
+15.9 +14.6 92 +17 +17 по сезону 1007.6 1006.9
00 20.07 СЗ 1 10 км {ливн. осадки, дождь} 10/10 200 м
[Sc]
+15.6 +14.5 93 +16 +16 по сезону 1007.9 1007.1
03 20.07 С 1 4000 м слаб. морось {дождь} 10/10 100 м
[St]
+15.7 +14.6 93 +16 +16 прохладно 1008.8 1008.1 +15.6 4
06 20.07 С 1 10 км {дождь, морось} 9/9 300 м
[Sc diur, vesp]
+17.5 +14.6 83 +19 +19 по сезону 1009.8 1009.1 +15.6 4
09 20.07 С 2 10 км 8/8 1000 м
[Sc diur, vesp]
+19.8 +14.2 70 +22 +25 комфорт 1011.5 1010.8
12 20.07 ЮЗ 3 10 км 8/4 1000 м
[Cu med, cong Ci fib]
+21.7 +15.0 66 +25 +30 комфорт 1012.7 1012.0
15 20.07 СЗ 2 10 км 4/3 1000 м
[Cu med, cong Ci fib]
+21.9 +14.3 62 +25 +28 комфорт 1013.6 1012.9
18 20.07 С 1 10 км 5/0
[Ac trans]
+20.0 +14.2 69 +23 +23 комфорт 1014.4 1013.7 +22.8
21 20.07 штиль 0 10 км ясно +16.3 +14.5 89 +16 +16 прохладно 1015.8 1015.1
00 21.07 З 1 10 км 3/0
[Ac trans]
+15.1 +13.8 92 +16 +16 по сезону 1016.6 1015.9
03 21.07 СЗ 1 10 км 3/0
[Ac trans]
+15.1 +11.7 80 +16 +16 по сезону 1017.0 1016.3 +14.0
06 21.07 ЮЗ 1 10 км ясно +18.9 +12.5 66 +21 +28 комфорт 1017.5 1016.8 +14.0
09 21.07 З 2 10 км 3/1 1000 м
[Cu hum Ci fib]
+21.6 +12.0 54 +24 +35 комфорт 1017.8 1017.1
12 21.07 З 2 10 км 6/4 600 м
[Cu med, cong Ci fib]
+23.1 +11.9 49 +26 +32 жарко 1018.1 1017.4
15 21.07 штиль 0 10 км 8/0
[Ac As]
+22.6 +10.4 46 +24 +27 комфорт 1017.7 1017.0
18 21.07 В 1 10 км 6/0
[Ci sp]
+21.7 +8.9 44 +23 +23 комфорт 1017.5 1016.8 +24.5
21 21.07 штиль 0 10 км 1/0
[Ac trans]
+16.4 +11.9 75 +16 +16 прохладно 1017.7 1016.9
00 22.07 штиль 0 10 км ясно +14.7 +11.9 83 +14 +14 прохладно 1017.8 1017.1
03 22.07 штиль 0 10 км 1/0
[Ac cast]
+14.4 +12.5 88 +14 +15 прохладно 1017.7 1017.0 +13.6
06 22.07 ЮВ 1 10 км ясно +22.0 +6.8 37 +23 +30 комфорт 1016.9 1016.2 +13.6
09 22.07 СВ 1 10 км ясно +24.2 +6.8 33 +24 +39 комфорт 1016.4 1015.7
12 22.07 В 2 10 км 4/4 1000 м
[Cu hum]
+25.2 +5.9 29 +25 +31 комфорт 1015.8 1015.1
15 22.07 В 2 10 км 3/0
[Ci fib]
+25.0 +5.7 29 +25 +28 комфорт 1015.0 1014.2
18 22.07 штиль 0 10 км ясно +22.2 +5.6 34 +23 +23 комфорт 1014.6 1013.9 +26.1
21 22.07 штиль 0 10 км ясно +17.7 +10.2 61 +18 +18 по сезону 1014.8 1014.1
00 23.07 С 1 10 км ясно +14.9 +12.4 85 +15 +15 по сезону 1014.8 1014.1
03 23.07 штиль 0 10 км ясно +15.0 +13.4 90 +15 +16 прохладно 1014.5 1013.8 +14.1
06 23.07 С 1 10 км ясно +22.1 +9.4 44 +24 +31 комфорт 1014.2 1013.5 +14.1

 

Местоположение метеостанции Санкт-Петербург (город Санкт-Петербург, Россия): широта 59.97 долгота 30.30 высота над уровнем моря 6 м.

В архиве по умолчанию представлена погода в Санкт-Петербурге за последнюю неделю. Архивные данные за месяц целиком и за предыдущие месяцы, начиная с января 2011 года, Вы можете получить, выбрав интересующий диапазон дат из раскрывающегося списка и нажав кнопку "Ввод!".


*Определитесь, кто Вы:
робот инопланетянин человек

Внимание! Время в таблицах - всемирное. Для получения местного времени необходимо прибавить поправку, которая равна 3 ч.

Смотрите также архив погоды в соседних городах и на ближайших метеорологических станциях:

Погода в Лисьем Носу (город Санкт-Петербург, Россия) (19 км)
Погода в Воейково (город Санкт-Петербург, Россия) (22 км)
Погода в Ломоносове (город Санкт-Петербург, Россия) (29 км)
Погода в Кронштадте (город Санкт-Петербург, Россия) (30 км)
Погода в Шлиссельбурге (Ленинградская область, Россия) (39 км)
Погода в Рощино (Ленинградская область, Россия) (48 км)
Погода в Шепелево (Ленинградская область, Россия) (58 км)
Погода в Сосново (Ленинградская область, Россия) (65 км)
Погода в Сосновом Бору (Ленинградская область, Россия) (65 км)
Погода в Белогорке (Ленинградская область, Россия) (70 км)

Пояснения к столбцам:

Ветер - указаны скорость ветра в м/с - средняя за 10 мин, порывы в срок и между сроками (в фигурных скобках) и направление, откуда дует ветер: С - северный, СВ - северо-восточный, В - восточный, ЮВ - юго-восточный, Ю - южный, ЮЗ - юго-западный, З - западный, СЗ - северо-западный.
Видимость - горизонтальная дальность видимости в метрах или километрах. При видимости от 1 до 10 км при отсутствии осадков обычно наблюдается дымка, при ухудшении видимости до 1 км и менее - туман. В сухую погоду видимость может ухудшаться дымом, пылью или мглою.
Явления - указаны атмосферные явления, наблюдавшиеся в срок или в последний час перед сроком; фигурными скобками обозначены явления, наблюдавшиеся между сроками (за 1-3 часа до срока); квадратными скобками обозначены град или гололедные отложения с указанием их диаметра в мм.
Облачность - указаны через наклонную черту общая и нижняя облачность в баллах и высота нижней границы облаков в метрах; квадратными скобками обозначены формы облаков: Ci - перистые, Cs - перисто-слоистые, Cc - перисто-кучевые, Ac - высококучевые, As - высокослоистые, Sc - слоисто-кучевые, Ns - слоисто-дождевые, Cu - кучевые, Cb - кучево-дождевые. Подробнее классификацию облаков см. в Атласе облаков (PDF).
T - Температура воздуха - температура, измеренная на высоте 2 м над землей.
Td - Температура точки росы - температура, при понижении до которой содержащийся в воздухе водяной пар достигнет насыщения.
f - Относительная влажность воздуха - влажноcть воздуха, измеренная на высоте 2 м над землей.
Te - Эффективная температура - температура, которую ощущает одетый по сезону человек в тени. Характеристика душности погоды. При расчете учитывается влияние влажности воздуха и скорости ветра на теплоощущения человека.
Tes - Эффективная температура на солнце - температура, которую ощущает человек, с поправкой на солнечный нагрев. Характеристика знойности погоды. Зависит от высоты солнца над горизонтом, облачности и скорости ветра. Ночью, в пасмурную погоду, а также при ветре 12 м/с и более поправка равна нулю.
P - Атмосферное давление - приведенное к уровню моря атмосферное давление.
Po - Атмосферное давление - измеренное на уровне метеостанции атмосферное давление.
Tmin - Минимальная температура - минимум температуры воздуха на высоте 2 м над землей.
Tmax - Максимальная температура - максимум температуры воздуха на высоте 2 м над землей.
R - Количество осадков - Количество выпавших осадков за период времени, мм. При наведении курсора мыши на число - период времени, за который выпало указанное количество осадков.
R24 - Количество осадков - Количество выпавших осадков за 24 часа, мм.
S - Снежный покров - Высота снежного покрова, см. При наведении курсора мыши на число - состояние снежного покрова и степень покрытия местности в баллах.